Showing default

LUDI TANCE-4 01A, 57624

Orbit data source: Space-Track

LUDI TANCE-4 01A, 57624 is a payload satellite owned by CNSA (CN) in GEO that was launched on Sat, 12 Aug 2023 UTC via a CHANG ZHENG 3B launch vehicle from the Xichang Space Center, China (XSC). Payload-class satellites include a variety of spacecraft equipped with specific instruments for various scientific and technological missions. These include communications satellites like Starlink; space stations such as the ISS; scientific satellites like the Hubble; Earth observation satellites from companies like Planet Labs, Umbra, and HawkEye 360; GPS; miniature CubeSats for education and research; and military/defense satellites.

Not visible in the next 10 days
Identifier
57624, 2023-120A
Orbit
GEO
Country
Flag of CNCN / PRC
Related business
Manufacturer
CAST
Mission
Operational Defense Radar Imaging
Bus & Motor
DFH-3B, FY-25
Mass
~3,060 kg wet, 1,700 kg dry
Launch date (UTC)
2023-08-12 (3 years ago)
Launch vehicle
CHANG ZHENG 3B
Launch site
Xichang Space Center, China (XSC)
Object type
Payload
Rocket body
Debris
Shape & HBR
Box + 2 Pan, 9.0 m
Radar Cross Section
13.998 m², Large (>1 m²)

Expand to show TLE details & history
Last TLE update: 7 hours ago

TLE from 7 hours ago
0 LUDI TANCE-4 01A
1 57624U 23120A   26130.16414264 -.00000176  00000-0  00000+0 0  9996
2 57624  15.1253 194.9162 0001727 113.4416  68.1437  1.00277089 10163
Epoch: 2026-05-10T03:56Z
TLE epoch observation values (Epoch: 2026-05-10T03:56:21.924Z)
Latitude
-0.39078°
Longitude
89.38268°
Altitude
35,782.021 km
Speed
3.075 km/s
True Right ascension
01h 05m 46s
True Declination
0° 23' 25"
Sunlit
Object was in daylight at epoch
Visualization orbit readout
Latitude
Unknown
Longitude
Unknown
Altitude
Unknown
Speed
Unknown
Apparent Right ascension
Unknown
Apparent Declination
Unknown
Sunlit
N/A
Visualization observer readout
Local Sidereal Time
18:59:47
Azimuth
Unknown
Elevation
Unknown
Doppler factor
Unknown
Orbital elements
Apogee altitude
35,793.354 km
Perigee altitude
35,778.79 km
Semi-major axis
42,164.209 km
Eccentricity
0.00017
Inclination
15.1253°
RAAN
194.9162°
Arg. of periapsis
113.4416°
True anomaly
68.16207°
Mean anomaly
68.1437°
Eccentric anomaly
68.15288°
Mean motion
0.25068 °/min
Orbital period
1,436.07 mins
BSTAR
0
Loading maneuver chart data...
Computing Atmospheric mass density...
Loading historical data...
Loading historical data...
Loading historical data...
Loading historical data...
Loading historical data...
Loading historical data...
Loading historical data...
Other satellites on launch #120 in the year 2023 (2023-08-12 UTC)

Documentation

Showing up to 5 results
|